Location: Fouquenies
(49.4624°N, 2.0492°E)
Time: 00:22:23
(UTC+00:00)

Cosmos 1328 - Pass Details

Date: 03 February 2023
Orbit: 518 x 544 km, 82.5° (Epoch: 21 March)

Event Time Altitude Azimuth Distance (km) Brightness Sun altitude
Rises 17:44:57 0° 186° (S) 2,701 7.6 -9.1°
Reaches altitude 10° 17:47:06 10° 186° (S) 1,810 6.7 -9.5°
Maximum altitude 17:51:06 84° 98° (E) 553 3.7 -10.1°
Drops below altitude 10° 17:55:05 10° 11° (N) 1,810 6.2 -10.7°
Sets 17:57:14 0° 11° (N) 2,701 7.1 -11.1°
